Tracking 28888 objects as of 22-May-2024
HD Live streaming from Space Station
objects crossing your sky now

STARLINK-6042

Track STARLINK-6042 now!
10-day predictions
STARLINK-6042 is classified as:


NORAD ID: 56808
Int'l Code: 2023-078AT
Perigee: 513.3 km
Apogee: 517.1 km
Inclination: 70.0 °
Period: 94.8 minutes
Semi major axis: 6886 km
RCS: Unknown
Launch date: May 31, 2023
Source: United States (US)
Launch site: AIR FORCE WESTERN TEST RANGE (AFWTR)
Your satellite tracking list
Your tracking list is empty




NASA's NSSDC Master Catalog

Two Line Element Set (TLE):
1 56808U 23078AT  24142.38288584 -.00001925  00000-0 -85652-4 0  9995
2 56808  69.9989 150.2942 0002747 266.9115  93.1740 15.19268508 55494
Source of the keplerian elements: AFSPC